Date,TemperatureHighF,TemperatureAvgF,TemperatureLowF,DewpointHighF,DewpointAvgF,DewpointLowF,HumidityHigh,HumidityAvg,HumidityLow,PressureMaxIn,PressureMinIn,WindSpeedMaxMPH,WindSpeedAvgMPH,GustSpeedMaxMPH,PrecipitationSumIn
2012-1-1,56.6,47.5,37.7,34.0,27.1,20.0,63,47,24,30.63,30.19,23,10,31,0.00
2012-1-2,49.2,39.6,31.9,27.0,20.4,13.0,77,49,26,30.79,30.59,12,3,18,0.00
2012-1-3,57.7,43.9,30.3,30.0,24.3,16.0,69,47,33,30.59,30.15,16,5,24,0.00
2012-1-4,62.8,47.6,36.2,36.0,31.4,28.0,72,55,35,30.33,30.14,13,3,18,0.00
2012-1-5,63.6,47.8,32.3,36.0,32.1,27.0,83,58,32,30.32,30.01,13,3,18,0.00
2012-1-6,71.5,55.6,44.1,46.0,40.6,35.0,88,60,30,30.00,29.76,11,4,22,0.00
2012-1-7,55.9,49.6,42.7,42.0,35.9,27.0,79,60,50,30.04,29.85,17,7,22,0.00
2012-1-8,53.2,49.0,43.0,43.0,39.1,32.0,85,70,55,30.17,30.03,11,4,18,0.00
2012-1-9,50.0,45.0,39.0,34.0,30.3,26.0,75,58,40,30.22,30.07,16,8,20,0.00
2012-1-10,45.4,42.9,39.8,42.0,38.7,35.0,95,85,71,30.10,29.80,20,5,27,0.48
2012-1-11,62.7,45.0,33.3,42.0,35.7,25.0,90,72,42,30.06,29.62,27,8,41,0.44
2012-1-12,39.3,32.9,27.1,26.0,9.2,1.0,74,40,20,30.25,30.06,24,10,28,0.03
2012-1-13,53.5,38.8,24.6,27.0,19.3,11.0,75,47,31,30.27,30.17,11,2,15,0.21
2012-1-14,61.1,47.1,36.3,30.0,25.6,21.0,68,46,22,30.30,30.18,13,2,13,0.01
2012-1-15,64.5,50.9,37.5,49.0,36.6,28.0,76,60,38,30.23,29.98,20,7,30,0.00
2012-1-16,72.6,63.3,55.6,61.0,56.2,49.0,85,78,60,29.97,29.74,21,9,25,0.00
2012-1-17,64.2,41.7,30.9,59.0,28.8,18.0,83,61,38,30.38,29.79,27,9,35,0.00
2012-1-18,50.4,36.3,24.0,30.0,23.3,18.0,81,61,37,30.38,29.98,11,2,14,0.00
2012-1-19,63.3,48.6,37.4,40.0,36.1,31.0,85,64,41,29.95,29.80,8,3,13,0.00
2012-1-20,71.2,51.0,38.8,46.0,37.0,29.0,95,62,31,29.99,29.63,21,9,25,0.00
2012-1-21,46.8,36.9,27.2,37.0,25.6,18.0,88,65,46,30.12,29.80,16,7,22,0.00
2012-1-22,71.9,54.3,39.7,53.0,39.1,23.0,94,65,16,29.92,29.52,34,14,49,0.00
2012-1-23,60.4,48.1,38.9,35.0,30.6,23.0,80,55,25,30.13,29.93,8,2,11,0.00
2012-1-24,62.5,48.9,41.9,46.0,36.5,30.0,93,65,37,30.08,29.89,22,9,29,0.82
2012-1-25,48.5,46.9,44.7,46.0,44.6,43.0,95,91,85,30.00,29.84,20,9,31,0.99
2012-1-26,57.9,48.2,40.9,43.0,37.9,35.0,90,70,42,30.02,29.83,16,4,18,0.03
2012-1-27,67.2,51.1,38.7,44.0,35.9,30.0,82,58,42,30.22,29.79,23,9,33,0.00
2012-1-28,50.6,43.0,33.0,30.0,25.0,19.0,77,51,29,30.50,30.23,24,4,25,0.00
2012-1-29,60.5,45.3,30.7,33.0,27.9,24.0,75,53,32,30.43,30.23,13,3,18,0.00
2012-1-30,66.7,54.1,41.0,54.0,42.7,33.0,81,67,48,30.22,29.99,19,7,28,0.00
2012-1-31,72.8,62.9,50.9,56.0,52.7,47.0,88,71,44,30.02,29.89,19,7,27,0.00
2012-2-1,68.6,55.0,45.2,47.0,43.2,39.0,88,67,40,30.15,30.00,11,2,15,0.00
2012-2-2,67.1,55.8,41.3,60.0,49.5,37.0,88,79,68,30.16,29.95,18,7,25,0.00
2012-2-3,70.0,63.0,49.7,65.0,59.8,45.0,96,89,78,30.02,29.79,19,9,23,0.08
2012-2-4,49.0,45.0,41.6,44.0,37.4,34.0,87,75,64,30.36,30.03,23,12,27,0.00
2012-2-5,46.8,40.5,35.1,34.0,32.3,31.0,86,73,60,30.45,30.35,18,9,26,0.00
2012-2-6,55.1,42.9,29.9,36.0,31.7,28.0,92,68,42,30.38,30.19,6,0,15,0.00
2012-2-7,54.8,48.2,40.8,41.0,39.1,36.0,84,72,55,30.40,30.18,17,4,21,0.00
2012-2-8,43.4,38.6,36.3,36.0,32.4,30.0,84,78,65,30.50,30.35,17,4,19,0.00
2012-2-9,45.3,39.7,30.7,42.0,35.2,29.0,94,84,73,30.36,30.11,14,4,17,0.11
2012-2-10,46.8,39.8,30.3,42.0,34.0,21.0,95,81,59,30.41,30.09,19,9,25,0.05
2012-2-11,30.2,26.0,22.4,21.0,12.6,9.0,68,57,46,30.69,30.41,19,9,25,0.00
2012-2-12,41.0,31.9,23.9,30.0,17.4,12.0,94,58,35,30.68,30.24,10,3,17,0.00
2012-2-13,42.1,36.0,31.9,41.0,34.9,30.0,97,95,94,30.23,29.82,13,4,16,0.35
2012-2-14,51.5,45.4,40.2,49.0,43.8,39.0,97,94,86,29.97,29.83,15,7,19,0.01
2012-2-15,70.0,56.6,47.5,59.0,44.6,30.0,98,72,24,30.06,29.80,23,7,29,0.00
2012-2-16,56.7,48.5,42.3,43.0,41.0,39.0,89,76,59,30.27,30.08,14,5,20,0.00
2012-2-17,56.8,50.5,44.1,49.0,45.3,41.0,89,82,74,30.16,30.02,10,2,14,0.00
2012-2-18,53.9,49.1,40.7,49.0,45.2,38.0,93,86,71,30.07,29.92,14,6,22,0.18
2012-2-19,56.4,45.3,36.4,44.0,39.9,35.0,94,82,60,30.15,29.98,7,2,11,0.00
2012-2-20,66.9,51.4,43.4,52.0,40.1,19.0,91,70,20,30.09,29.76,29,9,48,0.00
2012-2-21,68.5,51.4,34.6,41.0,30.1,21.0,74,48,21,30.13,29.82,21,5,27,0.00
2012-2-22,71.8,59.3,49.0,45.0,38.9,34.0,78,50,27,29.81,29.44,15,6,19,0.00
2012-2-23,74.3,61.4,49.7,43.0,35.0,27.0,50,38,28,29.89,29.30,25,12,29,0.00
2012-2-24,55.8,48.4,39.2,27.0,22.1,15.0,55,37,20,30.33,29.90,26,9,28,0.00
2012-2-25,63.2,49.2,33.3,27.0,23.0,17.0,69,40,18,30.37,30.09,19,5,26,0.00
2012-2-26,63.6,52.4,40.8,46.0,37.4,25.0,79,58,38,30.16,29.97,16,6,24,0.00
2012-2-27,63.0,56.9,49.5,51.0,48.2,45.0,84,73,62,30.30,30.15,16,6,18,0.00
2012-2-28,71.0,63.9,56.7,64.0,57.5,42.0,92,80,37,30.14,29.73,18,9,26,0.00
2012-2-29,69.4,60.9,49.9,40.0,29.5,22.0,47,31,17,29.99,29.85,11,4,17,0.00
2012-3-1,81.4,63.0,47.3,64.0,39.4,22.0,88,48,12,29.87,29.48,22,7,26,0.00
2012-3-2,67.5,56.1,47.0,64.0,38.5,26.0,88,54,33,29.97,29.45,17,9,24,0.00
2012-3-3,57.1,47.9,40.4,32.0,25.0,17.0,71,44,21,30.14,29.97,20,3,24,0.00
2012-3-4,71.1,54.1,35.1,32.0,27.1,23.0,67,39,18,30.16,30.07,18,4,21,0.00
2012-3-5,76.1,61.3,43.4,39.0,34.3,30.0,71,39,21,30.28,30.10,24,6,26,0.00
2012-3-6,71.1,62.1,54.4,54.0,48.1,34.0,83,62,40,30.11,29.87,31,10,42,0.00
2012-3-7,70.6,66.1,63.4,62.0,59.0,53.0,86,78,68,29.90,29.80,22,10,29,0.00
2012-3-8,67.9,48.6,39.5,64.0,43.8,31.0,93,83,68,30.40,29.85,31,14,37,0.10
2012-3-9,58.0,48.3,38.1,31.0,26.5,21.0,72,45,28,30.53,30.36,22,9,31,0.00
2012-3-10,54.9,47.8,41.4,45.0,37.0,27.0,94,69,44,30.39,30.07,18,7,28,1.19
2012-3-11,60.0,52.1,46.7,52.0,48.6,45.0,97,88,71,30.11,29.87,12,4,19,0.76
2012-3-12,81.6,64.8,51.4,58.0,50.5,43.0,92,65,27,29.96,29.86,17,6,22,0.00
2012-3-13,76.9,67.1,58.9,65.0,61.6,58.0,97,83,65,30.05,29.93,15,5,23,0.00
2012-3-14,73.1,69.3,65.6,65.0,63.8,62.0,93,83,69,30.06,29.95,18,6,26,0.00
2012-3-15,78.5,72.0,66.9,66.0,64.7,63.0,89,78,64,30.05,29.95,21,7,24,0.00
2012-3-16,78.3,70.8,65.2,66.0,64.2,63.0,94,81,60,30.02,29.88,23,5,26,0.00
2012-3-17,74.1,70.4,67.1,65.0,63.4,61.0,88,78,70,29.95,29.83,22,7,31,0.00
2012-3-18,74.3,70.2,66.4,65.0,63.3,62.0,86,79,70,29.91,29.75,25,9,30,0.00
2012-3-19,75.3,65.6,56.4,66.0,61.0,55.0,96,86,66,29.76,29.58,27,9,46,1.02
2012-3-20,63.8,57.2,51.2,55.0,51.5,48.0,96,82,62,29.80,29.65,16,4,22,0.73
2012-3-21,63.3,54.4,48.1,52.0,46.1,33.0,95,76,35,29.79,29.68,14,3,32,0.01
2012-3-22,55.9,49.1,44.5,50.0,46.2,43.0,95,90,70,29.93,29.73,14,4,21,0.29
2012-3-23,71.3,58.5,46.0,51.0,47.1,44.0,92,69,44,30.05,29.93,15,3,21,0.00
2012-3-24,79.1,64.9,49.4,55.0,50.4,46.0,89,62,40,30.04,29.93,10,2,12,0.00
2012-3-25,80.7,68.3,54.6,60.0,55.7,51.0,88,66,44,30.07,29.94,8,2,12,0.00
2012-3-26,81.5,70.4,59.2,59.0,56.5,53.0,81,63,43,30.02,29.89,14,5,21,0.00
2012-3-27,76.4,68.2,59.9,60.0,57.8,57.0,89,71,52,29.98,29.88,19,5,30,0.00
2012-3-28,78.5,68.6,61.2,67.0,61.5,56.0,90,78,65,29.98,29.85,17,4,22,0.00
2012-3-29,76.7,68.1,61.0,65.0,62.3,59.0,95,83,62,29.88,29.74,14,6,19,0.00
2012-3-30,79.4,70.6,63.1,68.0,65.3,62.0,97,84,63,29.84,29.68,11,5,16,0.00
2012-3-31,80.6,72.2,66.4,70.0,67.4,65.0,96,85,67,29.79,29.70,11,4,20,0.01
2012-4-1,85.3,75.0,65.9,70.0,67.3,65.0,96,78,58,29.72,29.53,18,6,22,0.00
2012-4-2,80.7,72.7,64.9,68.0,64.5,58.0,87,76,62,29.67,29.52,21,8,31,0.00
2012-4-3,66.4,62.1,57.5,63.0,59.3,55.0,96,91,77,29.85,29.63,21,7,39,0.97
2012-4-4,65.3,58.6,52.0,60.0,53.2,48.0,97,83,59,29.87,29.76,13,4,24,0.09
2012-4-5,71.3,59.1,48.2,56.0,52.2,46.0,93,79,58,29.94,29.77,9,3,12,0.06
2012-4-6,72.0,61.4,51.3,60.0,55.6,50.0,96,82,61,30.04,29.93,14,4,16,0.02
2012-4-7,79.0,66.1,59.5,66.0,60.1,55.0,89,81,60,30.20,29.97,15,7,19,0.01
2012-4-8,68.9,61.4,57.7,63.0,58.7,56.0,96,91,75,30.28,30.16,11,4,14,0.03
2012-4-9,71.7,64.0,58.1,65.0,60.7,57.0,97,89,75,30.19,30.01,9,3,12,0.04
2012-4-10,81.4,70.7,60.9,66.0,62.6,59.0,95,78,53,30.08,29.96,7,2,11,0.02
2012-4-11,75.8,68.0,61.7,66.0,62.3,57.0,95,82,67,30.10,29.97,17,8,19,0.03
2012-4-12,73.4,63.6,56.2,65.0,58.2,52.0,88,82,73,30.04,29.82,24,11,25,0.01
2012-4-13,78.6,72.0,65.8,68.0,65.0,60.0,90,79,68,29.88,29.75,18,8,24,0.00
2012-4-14,77.4,73.9,70.8,69.0,67.3,66.0,87,80,73,29.79,29.56,22,9,35,0.00
2012-4-15,74.4,67.7,58.6,68.0,53.5,37.0,91,64,26,29.87,29.51,20,8,33,0.19
2012-4-16,70.5,60.8,52.7,50.0,46.1,42.0,83,60,40,30.19,29.88,14,3,18,0.00
2012-4-17,73.9,59.0,48.9,56.0,49.8,45.0,88,73,44,30.25,30.18,8,1,13,0.00
2012-6-5,87.7,80.0,74.6,71.4,68.6,67.0,79,69,54,29.74,29.66,11,4,14,0.00
2012-6-6,80.7,73.2,67.0,70.0,67.0,63.0,95,81,68,29.84,29.69,23,8,25,0.54
2012-6-7,74.1,68.4,64.8,66.0,64.9,63.0,96,89,70,30.00,29.84,13,5,16,0.53
2012-6-8,83.1,73.8,63.8,65.0,62.4,59.0,92,70,45,30.00,29.82,13,3,18,0.00
2012-6-9,87.4,77.7,66.0,70.0,66.9,62.0,89,70,54,29.84,29.64,14,5,20,0.00
2012-6-10,89.8,81.5,74.0,75.0,71.1,69.0,85,71,57,29.68,29.62,21,8,27,0.00
2012-6-11,95.6,84.4,69.9,79.0,74.9,67.0,91,74,54,29.95,29.64,21,5,30,0.56
2012-6-12,82.2,75.3,67.2,71.0,68.1,64.0,94,79,58,30.10,29.91,19,4,30,0.23
2012-6-13,77.1,72.2,68.1,71.0,68.5,66.0,95,88,79,30.00,29.84,14,6,21,0.11
2012-6-14,89.7,80.4,71.5,77.0,72.6,68.0,91,78,59,29.88,29.73,16,8,20,0.02
2012-6-15,85.2,77.2,71.5,75.0,71.1,66.0,90,81,69,29.91,29.77,15,7,19,0.00
2012-6-16,88.6,78.6,71.2,74.0,70.4,67.0,91,77,50,29.97,29.89,16,6,21,0.00
2012-6-17,88.8,78.3,72.1,75.0,71.1,66.0,90,79,61,29.95,29.73,16,5,23,0.00
2012-6-18,88.3,80.1,70.8,72.0,69.7,67.0,92,72,56,29.76,29.68,17,7,27,0.00
2012-6-19,88.9,79.7,73.5,72.0,70.2,68.0,89,73,54,29.83,29.72,22,10,32,0.00
2012-6-20,88.2,80.4,74.7,74.0,70.8,68.0,86,73,54,29.90,29.81,18,7,25,0.00
2012-6-21,88.6,79.4,71.6,74.0,71.0,68.0,92,76,57,30.01,29.87,11,3,18,0.00
2012-6-22,92.4,81.8,70.7,75.0,71.5,69.0,94,73,52,29.95,29.79,8,2,9,0.00
2012-6-23,93.8,84.5,75.1,74.0,70.6,67.0,87,65,44,29.85,29.78,15,4,16,0.00
2012-6-24,95.3,84.4,72.0,71.0,67.1,63.0,80,58,35,29.91,29.82,11,3,14,0.00
2012-6-25,99.8,86.4,70.8,75.0,68.6,65.0,87,59,32,29.88,29.73,11,1,11,0.00
2012-6-26,101.3,88.2,73.7,75.0,70.5,67.0,87,59,35,29.78,29.68,10,1,13,0.00
2012-6-27,97.6,87.2,78.2,73.0,70.6,62.0,82,59,39,29.86,29.73,15,6,17,0.00
2012-6-28,98.3,86.2,74.3,70.0,64.4,59.0,66,49,31,29.95,29.86,16,5,20,0.00
2012-6-29,95.6,85.9,76.1,71.0,66.8,63.0,77,55,36,29.93,29.77,14,4,20,0.00
2012-6-30,95.2,85.1,74.5,71.0,68.2,64.0,80,58,35,29.84,29.75,13,4,18,0.00
2012-7-1,90.9,81.9,72.5,72.0,69.9,65.0,88,68,48,29.92,29.82,14,5,22,0.00
2012-7-2,91.6,82.0,72.8,73.0,69.3,65.0,87,67,45,29.99,29.88,16,5,23,0.00
2012-7-3,83.5,78.3,75.5,70.0,68.4,66.0,78,72,60,29.96,29.90,11,4,17,0.00
2012-7-9,83.5,79.8,76.8,74.0,72.0,71.0,86,77,68,29.91,29.81,10,3,14,0.02
2012-7-10,87.3,76.7,72.0,73.0,71.4,70.0,95,84,58,29.92,29.87,13,4,19,0.00